Fort Campbell, KY

5:48 PM CDT on May 26, 2017 (GMT -0500)
Campbell Army Air Field

Weather History for KHOP - August, 2013

Change the Weather History Date:

Wednesday, August 14, 2013

  Actual Average Record
Temperature  
Mean Temperature 65 °F -  
Max Temperature 75 °F 85 °F 100 °F (2010)
Min Temperature 56 °F 66 °F 51 °F (2004)
Growing Degree Days 15 (Base 50)    
Moisture  
Dew Point 55 °F    
Average Humidity 68    
Maximum Humidity 100    
Minimum Humidity 46    
Precipitation  
Precipitation 0.00 in - - ()
Sea Level Pressure  
Sea Level Pressure 30.11 in    
Wind  
Wind Speed 11 mph (NNE)    
Max Wind Speed 16 mph    
Max Gust Speed 18 mph    
Visibility 8 miles    
Events      
Averages and records for this station are not official NWS values.
T = Trace of Precipitation, MM = Missing Value Source: NWS Daily Summary

Daily Weather History Graph

Daily Weather History Graph

Search for Another Location

Airport or City:

Trip Planner

Search our weather history database for the weather conditions in past years. The results will help you decide how hot, cold, wet, or windy it might be!

Date:

Astronomy

Aug. 14, 2013 Rise Set
Actual Time 6:06 AM CDT 7:41 PM CDT
Civil Twilight 5:39 AM CDT 8:09 PM CDT
Nautical Twilight 5:05 AM CDT 8:42 PM CDT
Astronomical Twilight 4:30 AM CDT 9:17 PM CDT
Moon 1:51 PM CDT (8/14) No Moon Set
Length of Visible Light 14h 30m
Length of Day
13h 35m
First Quarter, 53% of the Moon is Illuminated
Aug 14
First Quarter
Aug 20
Full
Aug 28
Last Quarter
Sep 5
New
Sep 12
First Quarter

Hourly Weather History & Observations

Time (CDT) Temp. Dew Point Humidity Pressure Visibility Wind Dir Wind Speed Gust Speed Precip Events Conditions
12:58 AM 64.8 °F 63.5 °F 96% 30.04 in 10.0 mi NNE 10.4 mph - N/A   Clear
1:58 AM 63.5 °F 63.1 °F 99% 30.06 in 10.0 mi NNE 9.2 mph - N/A   Clear
2:58 AM 61.7 °F 61.2 °F 98% 30.06 in 10.0 mi NNE 8.1 mph - N/A   Clear
3:58 AM 59.9 °F 59.4 °F 98% 30.06 in 10.0 mi NNE 9.2 mph - N/A   Clear
4:58 AM 57.6 °F 57.6 °F 100% 30.07 in 10.0 mi North 6.9 mph - N/A   Clear
5:58 AM 56.7 °F 56.5 °F 99% 30.09 in 10.0 mi NNE 5.8 mph - N/A   Clear
6:58 AM 57.4 °F 56.8 °F 98% 30.10 in 10.0 mi North 10.4 mph - N/A   Clear
7:58 AM 60.3 °F 55.9 °F 86% 30.12 in 10.0 mi NNE 9.2 mph - N/A   Clear
8:58 AM 64.2 °F 55.2 °F 73% 30.12 in 10.0 mi NE 13.8 mph - N/A   Clear
9:58 AM 68.0 °F 54.0 °F 61% 30.12 in 10.0 mi NE 15.0 mph - N/A   Clear
10:09 AM 69.8 °F 53.6 °F 56% 30.13 in 0.2 mi ENE 12.7 mph - N/A   Haze
10:20 AM 69.8 °F 53.6 °F 56% 30.13 in 7.0 mi NNE 13.8 mph - N/A   Clear
10:22 AM 69.8 °F 53.6 °F 56% 30.13 in 7.0 mi NE 15.0 mph - N/A   Clear
10:26 AM 69.8 °F 53.6 °F 56% 30.13 in - NNE 12.7 mph - N/A   Clear
10:58 AM 70.2 °F 52.9 °F 54% 30.13 in 7.0 mi NE 13.8 mph - N/A   Clear
11:10 AM 71.6 °F 53.6 °F 53% 30.13 in 7.0 mi NE 10.4 mph 18.4 mph N/A   Clear
11:11 AM 71.6 °F 53.6 °F 53% 30.13 in 7.0 mi NE 10.4 mph 18.4 mph N/A   Clear
11:12 AM 71.6 °F 53.6 °F 53% 30.13 in 7.0 mi NE 12.7 mph 18.4 mph N/A   Clear
11:13 AM 71.6 °F 53.6 °F 53% 30.13 in 0.2 mi NNE 12.7 mph 18.4 mph N/A   Haze
11:14 AM 71.6 °F 53.6 °F 53% 30.13 in 0.8 mi NNE 13.8 mph 18.4 mph N/A   Haze
11:15 AM 71.6 °F 55.4 °F 57% 30.13 in 1.8 mi NNE 15.0 mph 18.4 mph N/A   Haze
11:16 AM 71.6 °F 55.4 °F 57% 30.13 in 7.0 mi NNE 16.1 mph - N/A   Clear
11:58 AM 72.3 °F 54.0 °F 52% 30.12 in 10.0 mi NE 11.5 mph - N/A   Clear
12:58 PM 73.0 °F 53.2 °F 50% 30.12 in 10.0 mi NNE 13.8 mph - N/A   Clear
1:58 PM 74.3 °F 52.2 °F 46% 30.11 in 10.0 mi North 13.8 mph - N/A   Clear
2:58 PM 74.5 °F 54.0 °F 49% 30.10 in 10.0 mi NNE 11.5 mph - N/A   Clear
3:58 PM 74.7 °F 54.1 °F 49% 30.09 in 5.0 mi North 10.4 mph - N/A   Haze
4:58 PM 73.6 °F 53.4 °F 49% 30.09 in 10.0 mi North 12.7 mph - N/A   Clear
5:58 PM 72.9 °F 53.4 °F 50% 30.08 in 10.0 mi NNE 12.7 mph - N/A   Clear
6:58 PM 70.0 °F 55.2 °F 59% 30.08 in 10.0 mi NNE 9.2 mph - N/A   Partly Cloudy
7:58 PM 65.1 °F 56.5 °F 74% 30.09 in 10.0 mi NNE 3.5 mph - N/A   Partly Cloudy
8:58 PM 62.1 °F 56.8 °F 83% 30.10 in 10.0 mi NNE 4.6 mph - N/A   Clear
9:58 PM 60.8 °F 56.7 °F 86% 30.10 in 10.0 mi North 5.8 mph - N/A   Clear
10:58 PM 59.7 °F 55.8 °F 87% 30.12 in 10.0 mi North 5.8 mph - N/A   Clear
11:58 PM 59.7 °F 56.1 °F 88% 30.12 in 10.0 mi North 4.6 mph - N/A   Clear